Tucson Davis Monthan, AZ

8:42 AM MST on September 22, 2017 (GMT -0700)
Davis-Monthan Air Force Base

Weather History for KDMA - March, 2013

Change the Weather History Date:

Sunday, March 10, 2013

  Actual Average Record
Temperature  
Mean Temperature 52 °F -  
Max Temperature 63 °F 71 °F 97 °F (1989)
Min Temperature 41 °F 46 °F 32 °F (1974)
Degree Days  
Heating Degree Days 13    
Growing Degree Days 2 (Base 50)    
Moisture  
Dew Point 34 °F    
Average Humidity 53    
Maximum Humidity 80    
Minimum Humidity 24    
Precipitation  
Precipitation 0.00 in - - ()
Sea Level Pressure  
Sea Level Pressure 30.08 in    
Wind  
Wind Speed 6 mph (WNW)    
Max Wind Speed 20 mph    
Max Gust Speed 26 mph    
Visibility 10 miles    
Events      
Averages and records for this station are not official NWS values.
T = Trace of Precipitation, MM = Missing Value Source: NWS Daily Summary

Daily Weather History Graph

Daily Weather History Graph

Search for Another Location

Airport or City:

Trip Planner

Search our weather history database for the weather conditions in past years. The results will help you decide how hot, cold, wet, or windy it might be!

Date:

Astronomy

Mar. 10, 2013 Rise Set
Actual Time 6:39 AM MST 6:28 PM MST
Civil Twilight 6:15 AM MST 6:52 PM MST
Nautical Twilight 5:46 AM MST 7:21 PM MST
Astronomical Twilight 5:18 AM MST 7:49 PM MST
Moon 5:39 AM MST (3/10) 5:40 PM MST (3/10)
Length of Visible Light 12h 37m
Length of Day
11h 48m
Waning Crescent, 1% of the Moon is Illuminated
Mar 10
Waning Crescent
Mar 11
New
Mar 19
First Quarter
Mar 27
Full
Apr 2
Last Quarter

Hourly Weather History & Observations

Time (MST) Temp. Windchill Dew Point Humidity Pressure Visibility Wind Dir Wind Speed Gust Speed Precip Events Conditions
12:58 AM 46.6 °F - 37.0 °F 69% 30.06 in 10.0 mi West 5.8 mph - N/A   Overcast
1:58 AM 46.6 °F - 37.8 °F 71% 30.07 in 10.0 mi WSW 4.6 mph - N/A   Overcast
2:58 AM 46.4 °F 43.5 °F 37.6 °F 71% 30.06 in 10.0 mi SW 5.8 mph - N/A   Overcast
3:58 AM 46.2 °F 45.0 °F 37.4 °F 71% 30.06 in 10.0 mi WSW 3.5 mph - N/A   Scattered Clouds
4:58 AM 45.9 °F - 36.3 °F 69% 30.07 in 10.0 mi WNW 1.2 mph - N/A   Partly Cloudy
5:58 AM 42.3 °F - 35.6 °F 77% 30.08 in 10.0 mi Calm Calm - N/A   Clear
6:58 AM 41.7 °F - 36.0 °F 80% 30.10 in 10.0 mi ESE 2.3 mph - N/A   Partly Cloudy
7:58 AM 45.3 °F 43.0 °F 37.9 °F 75% 30.10 in 10.0 mi WNW 4.6 mph - N/A   Clear
8:58 AM 48.0 °F - 37.6 °F 67% 30.12 in 10.0 mi North 3.5 mph - N/A   Clear
9:58 AM 50.9 °F - 35.8 °F 56% 30.13 in 10.0 mi NW 4.6 mph - N/A   Clear
10:58 AM 53.4 °F - 34.9 °F 49% 30.12 in 10.0 mi WNW 8.1 mph - N/A   Partly Cloudy
11:58 AM 56.5 °F - 34.9 °F 44% 30.10 in 10.0 mi WNW 9.2 mph - N/A   Clear
12:58 PM 58.6 °F - 34.0 °F 40% 30.06 in 10.0 mi NW 12.7 mph - N/A   Partly Cloudy
1:58 PM 59.7 °F - 33.4 °F 37% 30.04 in 10.0 mi NW 8.1 mph - N/A   Clear
2:58 PM 62.1 °F - 31.5 °F 32% 30.03 in 10.0 mi WNW 11.5 mph - N/A   Clear
3:58 PM 63.9 °F - 25.7 °F 24% 30.02 in 10.0 mi NW 19.6 mph 26.5 mph N/A   Clear
4:58 PM 63.3 °F - 26.2 °F 25% 30.02 in 10.0 mi NNW 12.7 mph - N/A   Clear
5:58 PM 62.1 °F - 25.5 °F 25% 30.04 in 10.0 mi NE 9.2 mph - N/A   Clear
6:58 PM 57.9 °F - 34.2 °F 41% 30.08 in 10.0 mi NW 12.7 mph - N/A   Clear
7:58 PM 56.1 °F - 34.3 °F 44% 30.08 in 10.0 mi NW 5.8 mph 18.4 mph N/A   Clear
8:58 PM 54.0 °F - 34.3 °F 47% 30.09 in 10.0 mi NW 6.9 mph - N/A   Clear
9:58 PM 51.8 °F - 34.3 °F 51% 30.10 in 10.0 mi Calm Calm - N/A   Clear
10:58 PM 50.2 °F - 34.2 °F 54% 30.12 in 10.0 mi NNW 5.8 mph - N/A   Clear
11:58 PM 46.9 °F - 33.8 °F 60% 30.12 in 10.0 mi SSE 2.3 mph - N/A   Clear